Regional Weather Roundup
Issued by NWS

Home | Current Version | Previous Version | Text Only | Print | Product List | Glossary On
Versions: 1 2 3 4 5 6 7 8 9 10 11 12 13 14 15 16 17 18 19 20 21 22 23 24 25 26 27 28 29 30 31 32 33 34 35 36 37 38 39 40 41 42 43 44 45 46 47
000
ASUS42 KTBW 050817
RWRFL
FLORIDA REGIONAL WEATHER ROUNDUP
NATIONAL WEATHER SERVICE TAMPA BAY RUSKIN FL
400 AM EDT WED AUG 05 2015

NOTE: "FAIR" INDICATES FEW OR NO CLOUDS BELOW 12,000 FEET WITH NO
SIGNIFICANT WEATHER AND/OR OBSTRUCTIONS TO VISIBILITY.


FLZ001>010-012>015-112-114-115-050900-
PANHANDLE FLORIDA

CITY           SKY/WX    TMP DP  RH WIND       PRES   REMARKS
PENSACOLA      CLEAR     80  75  84 SW5       30.01F
PENSACOLA NAS  CLEAR     82  76  81 SW6       30.01S
MILTON NAS     CLEAR     77  74  90 SW3       30.02
CRESTVIEW      CLEAR     73  72  96 CALM      30.03F
DUKE FIELD     FAIR      75  73  94 CALM      30.01S
VALPARAISO     PTCLDY    80  75  86 CALM      30.01F
MARY ESTHER    CLEAR     84  75  73 N1        30.00F
PANAMA CITY    FAIR      77  75  93 CALM      30.02S
TYNDALL AFB    CLEAR     83  75  76 SW7       30.03S
APALACHICOLA   CLEAR     77  75  93 CALM      30.03S

STATION/POSITION SKY/WX   TEMP    WIND        PRES    WAVE   SWELL
                          AIR SEA DIR/SP/G            HT/PER HT/PER
                          (F)     (DEG/KT/KT) (MB)    (FT/S) (FT/S)
30.1N   87.6W              85 86  220/ 12/ 14 1015.4F   2/ 4
29.2N   88.2W              85 86  240/ 14/ 16 1016.6F   3/ 5
28.8N   86.0W              85 86  240/ 10/ 12 1017.2    2/ 4   2/ 6
PANAMA CITY BEAC           85 87  240/ 12/ 13 1016.4F
CAPE SAN BLAS    NOT AVBL
TOWER C                    84     230/ 12/ 13 1017.3R
28.5N   84.5W              84 84  210/  8/ 10 1017.7F   2/ 4   2/ 5

$$
FLZ011-016>038-118-127-128-134-139-239-050900-
NORTH FLORIDA

CITY           SKY/WX    TMP DP  RH WIND       PRES   REMARKS
MARIANNA       CLEAR     76  76 100 S3        30.02F
TALLAHASSEE    CLEAR     77  74  90 CALM      30.03F
PERRY          CLEAR     76  72  86 CALM      30.05S FOG
CROSS CITY       N/A     79  77  94 CALM      30.05S
LAKE CITY      FAIR      73  73 100 CALM      30.06S FOG
GAINESVILLE    FOG       76  75  97 CALM      30.07S VSB 3/4
MAYPORT NAS    CLEAR     76  74  93 SW6       30.05F
JACKSONVILLE   PTCLDY    74  73  97 CALM      30.05S
JAX NAS        PTCLDY    80  75  84 SW5       30.06S
JAX CRAIG      CLEAR     76  74  93 SW3       30.06S
JAX CECIL      CLEAR     75  75 100 S3        30.06S
FERNANDINA BEA FAIR      79  77  94 SW5       30.04S
ST AUGUSTINE   PTCLDY    76  75  97 CALM      30.08S

STATION/POSITION SKY/WX   TEMP    WIND        PRES    WAVE   SWELL
                          AIR SEA DIR/SP/G            HT/PER HT/PER
                          (F)     (DEG/KT/KT) (MB)    (FT/S) (FT/S)
SHELL POINT                81     290/  3/  4   N/A
KEATON BEACH               83     230/  9/ 10 1017.3F
CEDAR KEY                  82     230/  3/  5 1018.4R
FERNANDINA                 78 83  200/  7/  9 1016.9F
30.7N   81.3W                 82                N/A     2/11
MAYPORT                    78 80  230/  6/  8 1018.1F
31.4N   80.9W              81 83  240/ 14/ 16 1017.4R   2/ 7   2/ 7
ST AUGUSTINE               76 77  210/  3/  4 1019.0S

$$
FLZ040-043>046-052-053-057-058-063-144-050900-
INTERIOR CENTRAL FLORIDA

CITY           SKY/WX    TMP DP  RH WIND       PRES   REMARKS
OCALA          PTCLDY    73  72  94 CALM      30.08S
THE VILLAGES     N/A     75  75 100 CALM      29.99S FOG
LEESBURG       LGT RAIN  75  73  93 CALM      30.10R
SANFORD        CLOUDY    77  74  90 W3        30.09R
ORLANDO EXEC   CLEAR     78  76  93 CALM      30.09S
ORLANDO INTL   PTCLDY    77  75  93 CALM      30.09S
WINTER HAVEN   CLEAR     78  75  90 CALM      30.10S
LAKELAND       CLEAR     75  73  94 CALM      30.09F
BARTOW         FAIR      75 N/A N/A CALM      30.10S
OKEECHOBEE       N/A    N/A N/A N/A CALM      30.09S

$$
FLZ041-047-054-059-064-141-147-050900-
EAST CENTRAL FLORIDA

CITY           SKY/WX    TMP DP  RH WIND       PRES   REMARKS
DAYTONA BEACH  PTCLDY    75  73  93 CALM      30.09R
DELAND           N/A     75  73  94 CALM      30.10S
JFK SPACE CTR  CLEAR     75  73  91 S2        30.07S
CAPE CANAVERAL CLEAR     75  70  85 CALM      30.07S
MELBOURNE      CLEAR     79  73  82 CALM      30.08S
VERO BEACH     CLEAR     78  73  84 S5        30.09R
FT PIERCE      CLEAR     75  73  93 CALM      30.09R
STUART         CLEAR     77  72  83 CALM      30.10S

STATION/POSITION SKY/WX   TEMP    WIND        PRES    WAVE   SWELL
                          AIR SEA DIR/SP/G            HT/PER HT/PER
                          (F)     (DEG/KT/KT) (MB)    (FT/S) (FT/S)
28.5N   80.2W              81 80  210/  8/ 10 1018.9S
28.9N   78.5W              83 85  200/ 10/ 12 1018.9S
TRIDENT PIER               80 80  190/  5/  6 1019.1F
28.4N   80.5W                 78                N/A     1/11
27.5N   80.2W                 80                N/A     1/11

$$
FLZ050-056-061-142-242-148-248-149-249-151-251-155-255-
160-260-050900-
WEST CENTRAL FLORIDA

CITY           SKY/WX    TMP DP  RH WIND       PRES   REMARKS
CRYSTAL RIVER  FAIR      73  73 100 CALM      30.07S FOG
INVERNESS      FAIR      72  72 100 CALM      30.08F FOG
BROOKSVILLE    CLEAR     73  71  93 CALM      30.09S FOG
ZEPHYRHILLS      N/A     66  66 100 CALM      30.10R FOG
CLEARWATER     CLEAR     76  75  97 SE5       30.08R
TAMPA INTL     CLEAR     78  74  87 CALM      30.08S
TAMPA EXEC     CLEAR     73  72  94 CALM      30.09S FOG
PLANT CITY     CLEAR     75  75 100 CALM      30.11S FOG
MACDILL AFB    CLEAR     75  75 100 SE1       30.08S
PETER O KNIGHT CLEAR     79  77  94 CALM      30.09R
ST PETERSBURG  CLEAR     80  76  87 SE3       30.06S
SARASOTA       PTCLDY    75  74  96 CALM      30.07R
VENICE         FAIR      77  75  94 NE3       30.08F

STATION/POSITION SKY/WX   TEMP    WIND        PRES    WAVE   SWELL
                          AIR SEA DIR/SP/G            HT/PER HT/PER
                          (F)     (DEG/KT/KT) (MB)    (FT/S) (FT/S)
CEDAR KEY                  82     230/  3/  5 1018.4R
28.5N   84.5W              84 84  210/  8/ 10 1017.7F   2/ 4   2/ 5
27.3N   84.2W                 83                N/A     1/ 5
CLEARWATER BEACH NOT AVBL
MIDDLE TAMPA BAY           81      70/  2/  2 1018.9S
VENICE                     78 85   50/  4/  5 1018.1S

$$
FLZ066-069-070-075>078-162-262-165-265-050900-
SOUTHWEST FLORIDA AND KEYS

CITY           SKY/WX    TMP DP  RH WIND       PRES   REMARKS
PUNTA GORDA    CLEAR     77  76  96 MISG      30.09S
FT MYERS       CLEAR     80  75  84 CALM      30.06F
SOUTHWEST INTL CLEAR     79  75  87 CALM      30.07S
NAPLES         CLEAR     81  77  88 CALM      30.06S
MARCO ISLAND   MOSUNNY   77  72  83 CALM      30.06F
MARATHON       CLOUDY    85  77  77 SE6       30.04F HX  95
KEY WEST NAS   CLEAR     84  75  74 E3        30.04F
KEY WEST INTL  PTCLDY    85  77  77 SE8       30.05F HX  95

STATION/POSITION SKY/WX   TEMP    WIND        PRES    WAVE   SWELL
                          AIR SEA DIR/SP/G            HT/PER HT/PER
                          (F)     (DEG/KT/KT) (MB)    (FT/S) (FT/S)
VENICE                     78 85   50/  4/  5 1018.1S
NAPLES                        88              1019.1F
26.0N   85.6W              83 85  130/ 10/ 12 1017.1S   2/ 6   2/ 6
DRY TORTUGAS               85     150/ 11/ 12 1017.8F
NW FL BAY                  86     150/ 10/ 11 1018.0
SAND KEY                   84     110/  8/ 11 1017.3F
SOMBRERO KEY               85     130/ 12/ 14 1018.2F
LONG KEY                   85 88  130/ 10/ 11 1018.5F
MOLASSES REEF              85 87  120/  9/ 10 1017.8F

$$
FLZ067-068-071>074-168-172>174-050900-
SOUTHEAST FLORIDA

CITY           SKY/WX    TMP DP  RH WIND       PRES   REMARKS
W PALM BEACH   PTCLDY    78  74  87 CALM      30.09S
FT LAUDER-EXEC CLEAR     80  75  84 CALM      30.08S
FT LAUDERDALE  PTCLDY    81  75  82 CALM      30.07S
POMPANO BEACH  CLEAR     82  74  76 CALM      30.08S
PEMBROKE PINES CLEAR     79  74  84 N5        30.09S
OPA LOCKA      CLEAR     80  74  81 E3        30.08S
MIAMI          PTCLDY    83  74  74 SE7       30.08S
WEST KENDALL   CLEAR     80  75  84 CALM      30.07F
HOMESTEAD      CLEAR     82  75  81 E3        30.06F

STATION/POSITION SKY/WX   TEMP    WIND        PRES    WAVE   SWELL
                          AIR SEA DIR/SP/G            HT/PER HT/PER
                          (F)     (DEG/KT/KT) (MB)    (FT/S) (FT/S)
PORT EVERGLADES            84     160/  6/  9 1018.4F
VIRGINIA KEY               85 87  160/  6/  8 1018.3F
LAKE WORTH                 83 86  270/  3/  5 1018.3F
SETTLEMENT POINT           84     170/  8/  9 1019.6R

$$



USA.gov is the U.S. government's official web portal to all federal, state and local government web resources and services.